EW6614 Weather Reports


Display with metric or nautical units.
time (UTC)temp
F
wind
direction
speed
MPH
gust
MPH
rain 1hr
in
rain 24hr
in
rain mn
in
humidity
%
barometer
mb
20260507171611 68 36 5.0 14.0 0.00 0.00 0.00 51 1015.7
20260507171606 68 36 6.0 14.0 0.00 0.00 0.00 63 1015.8
20260507170058 68 113 3.0 9.0 0.00 0.00 0.00 65 1016.1
20260507164606 67 338 2.0 13.0 0.00 0.00 0.00 53 1016.0
20260507164556 67 351 2.0 13.0 0.00 0.00 0.00 65 1016.1
20260507163052 66 28 4.0 12.0 0.00 0.00 0.00 53 1016.3
20260507161604 65 334 5.0 9.0 0.00 0.00 0.00 53 1016.5
20260507161602 65 334 5.0 9.0 0.00 0.00 0.00 65 1016.5
20260507160052 64 349 5.0 13.0 0.00 0.00 0.00 54 1017.0
20260507160050 64 355 7.0 13.0 0.00 0.00 0.00 66 1017.2
20260507154554 64 61 3.0 11.0 0.00 0.00 0.00 54 1016.8
20260507154548 64 59 5.0 12.0 0.00 0.00 0.00 65 1017.1
20260507153101 62 72 3.0 9.0 0.00 0.00 0.00 67 1017.1
20260507153057 62 72 2.0 10.0 0.00 0.00 0.00 55 1016.9
20260507151558 61 130 4.0 9.0 0.00 0.00 0.00 55 1017.1
20260507151546 61 61 3.0 9.0 0.00 0.00 0.00 67 1017.3
20260507150104 62 340 3.0 10.0 0.00 0.00 0.00 55 1016.7
20260507150049 62 21 4.0 10.0 0.00 0.00 0.00 67 1016.8
20260507144556 59 340 4.0 14.0 0.00 0.00 0.00 55 1017.1
20260507144540 59 360 6.0 12.0 0.00 0.00 0.00 67 1017.3
20260507143106 60 47 2.0 11.0 0.00 0.00 0.00 54 1016.8
20260507143038 60 103 3.0 11.0 0.00 0.00 0.00 66 1017.0
20260507141601 59 113 1.0 15.0 0.00 0.00 0.00 56 1016.9
20260507141535 59 17 1.0 10.0 0.00 0.00 0.00 67 1017.0
20260507140054 57 360 4.0 15.0 0.00 0.00 0.00 55 1017.2
20260507140034 57 360 4.0 15.0 0.00 0.00 0.00 66 1017.4
20260507134558 57 110 1.0 12.0 0.00 0.00 0.00 53 1016.9
20260507134531 57 113 2.0 12.0 0.00 0.00 0.00 65 1017.1
20260507133058 56 360 3.0 8.0 0.00 0.00 0.00 53 1016.8
20260507133029 56 360 3.0 8.0 0.00 0.00 0.00 64 1016.9
20260507131613 55 0 0.0 8.0 0.00 0.00 0.00 52 1016.3
20260507131529 55 360 1.0 8.0 0.00 0.00 0.00 64 1016.4
20260507130057 55 0 2.0 9.0 0.00 0.00 0.00 52 1016.6
20260507130051 55 360 1.0 9.0 0.00 0.00 0.00 63 1016.8
20260507124557 55 360 0.0 4.0 0.00 0.00 0.00 51 1016.3
20260507124526 55 360 0.0 4.0 0.00 0.00 0.00 62 1016.7
20260507123056 54 0 0.0 5.0 0.00 0.00 0.00 51 1016.4
20260507123025 54 360 0.0 5.0 0.00 0.00 0.00 62 1016.6
20260507121608 54 0 1.0 4.0 0.00 0.00 0.00 51 1016.2
20260507121523 54 360 1.0 4.0 0.00 0.00 0.00 62 1016.3
20260507120056 54 0 1.0 4.0 0.00 0.00 0.00 50 1015.7
20260507120032 54 360 1.0 4.0 0.00 0.00 0.00 62 1015.8
20260507114600 54 0 0.0 6.0 0.00 0.00 0.00 50 1015.5
20260507114521 54 360 0.0 6.0 0.00 0.00 0.00 62 1015.4
20260507113100 54 0 0.0 1.0 0.00 0.00 0.00 50 1015.4
20260507113018 54 360 0.0 1.0 0.00 0.00 0.00 62 1015.4
20260507111559 54 0 0.0 0.0 0.00 0.00 0.00 50 1015.1
20260507111518 54 360 0.0 0.0 0.00 0.00 0.00 62 1015.2
20260507110112 54 0 0.0 4.0 0.00 0.00 0.00 50 1014.9
20260507110015 54 360 0.0 4.0 0.00 0.00 0.00 62 1014.9
20260507104555 53 0 0.0 3.0 0.00 0.00 0.00 51 1014.7
20260507104515 53 360 0.0 3.0 0.00 0.00 0.00 62 1014.7
20260507103058 53 0 0.0 4.0 0.00 0.00 0.00 51 1014.3
20260507103012 53 360 0.0 4.0 0.00 0.00 0.00 62 1014.4
20260507101555 53 0 0.0 8.0 0.00 0.00 0.00 51 1014.2
20260507101512 53 360 0.0 8.0 0.00 0.00 0.00 62 1014.1
20260507100057 53 0 0.0 4.0 0.00 0.00 0.00 51 1013.8
20260507100010 53 360 0.0 4.0 0.00 0.00 0.00 62 1013.6
20260507094609 53 0 0.0 4.0 0.00 0.00 0.00 51 1013.9
20260507094509 53 360 0.0 2.0 0.00 0.00 0.00 63 1013.8
20260507093058 53 0 0.0 8.0 0.00 0.00 0.00 51 1013.9
20260507093008 53 360 0.0 8.0 0.00 0.00 0.00 63 1013.9
20260507091626 54 0 0.0 5.0 0.00 0.00 0.00 51 1014.1
20260507091508 54 360 0.0 5.0 0.00 0.00 0.00 63 1014.0
20260507090105 54 360 0.0 6.0 0.00 0.00 0.00 51 1014.3
20260507090007 54 360 0.0 6.0 0.00 0.00 0.00 63 1014.0
20260507084557 54 360 0.0 9.0 0.00 0.00 0.00 52 1014.5
20260507084505 54 360 0.0 9.0 0.00 0.00 0.00 63 1014.4
20260507083057 54 360 0.0 4.0 0.00 0.00 0.00 52 1014.5
20260507083004 54 360 0.0 4.0 0.00 0.00 0.00 63 1014.2
20260507081555 54 0 0.0 10.0 0.00 0.00 0.00 52 1014.4
20260507081504 54 360 0.0 10.0 0.00 0.00 0.00 63 1014.2
20260507080056 54 0 1.0 8.0 0.00 0.00 0.00 51 1014.8
20260507080002 54 360 0.0 8.0 0.00 0.00 0.00 63 1014.5
20260507074600 54 360 0.0 10.0 0.00 0.00 0.00 51 1014.6
20260507074501 54 360 0.0 10.0 0.00 0.00 0.00 63 1014.3
20260507073103 54 360 4.0 13.0 0.00 0.00 0.00 63 1014.4
20260507073054 54 0 6.0 13.0 0.00 0.00 0.00 51 1014.7
20260507071559 54 360 2.0 13.0 0.00 0.00 0.00 52 1014.8
20260507071556 54 360 4.0 11.0 0.00 0.00 0.00 63 1014.5
20260507070055 55 360 6.0 13.0 0.00 0.00 0.00 63 1014.4
20260507064559 55 360 2.0 11.0 0.00 0.00 0.00 52 1014.8
20260507064551 55 360 5.0 11.0 0.00 0.00 0.00 63 1014.5
20260507063054 56 0 2.0 8.0 0.00 0.00 0.00 52 1014.7
20260507063050 56 360 2.0 8.0 0.00 0.00 0.00 63 1014.4
20260507061555 56 0 1.0 6.0 0.00 0.00 0.00 52 1014.9
20260507061547 56 360 1.0 6.0 0.00 0.00 0.00 63 1014.6
20260507060105 56 0 1.0 6.0 0.00 0.00 0.00 52 1014.7
20260507060046 56 360 0.0 6.0 0.00 0.00 0.00 63 1014.4
20260507054556 57 0 1.0 9.0 0.00 0.00 0.00 52 1014.5
20260507054545 57 360 1.0 9.0 0.00 0.00 0.00 63 1014.3
20260507053057 57 360 3.0 10.0 0.00 0.00 0.00 52 1014.4
20260507053042 57 360 2.0 10.0 0.00 0.00 0.00 64 1014.2
20260507051556 57 360 1.0 9.0 0.00 0.00 0.00 53 1014.3
20260507051542 57 360 2.0 9.0 0.00 0.00 0.00 64 1014.1
20260507050054 57 360 2.0 10.0 0.00 0.00 0.00 53 1014.5
20260507050040 57 360 2.0 10.0 0.00 0.00 0.00 65 1014.2
20260507044555 58 360 0.0 6.0 0.00 0.00 0.00 53 1014.7
20260507044540 58 360 1.0 6.0 0.00 0.00 0.00 65 1014.3
20260507043059 58 360 0.0 6.0 0.00 0.00 0.00 53 1014.0
20260507043033 58 360 2.0 9.0 0.00 0.00 0.00 65 1013.7
20260507041601 58 360 0.0 12.0 0.00 0.00 0.00 53 1014.3
20260507041540 59 360 1.0 12.0 0.00 0.00 0.00 65 1014.1
20260507040101 59 360 3.0 9.0 0.00 0.00 0.00 53 1014.3
20260507040032 59 360 3.0 8.0 0.00 0.00 0.00 65 1014.0
20260507034601 59 360 3.0 10.0 0.00 0.00 0.00 54 1013.8
20260507034528 59 360 3.0 10.0 0.00 0.00 0.00 65 1013.4
20260507033057 59 360 3.0 10.0 0.00 0.00 0.00 55 1013.1
20260507033028 59 360 4.0 10.0 0.00 0.00 0.00 66 1012.8
20260507031555 59 360 3.0 10.0 0.00 0.00 0.00 55 1013.1
20260507031527 60 360 3.0 10.0 0.00 0.00 0.00 67 1013.0
20260507030054 60 360 3.0 11.0 0.00 0.00 0.00 55 1013.1
20260507030021 60 360 2.0 10.0 0.00 0.00 0.00 67 1012.8
20260507024609 60 360 1.0 9.0 0.00 0.00 0.00 55 1012.8
20260507024519 60 360 1.0 9.0 0.00 0.00 0.00 67 1012.4
20260507023057 61 360 2.0 10.0 0.00 0.00 0.00 56 1012.6
20260507023015 61 360 2.0 9.0 0.00 0.00 0.00 67 1012.0
20260507021558 61 360 3.0 10.0 0.00 0.00 0.00 56 1012.4
20260507021515 61 360 3.0 8.0 0.00 0.00 0.00 68 1012.0
20260507020056 61 360 6.0 12.0 0.00 0.00 0.00 56 1011.8
20260507020011 61 360 6.0 12.0 0.00 0.00 0.00 68 1011.6
20260507014559 62 360 2.0 10.0 0.00 0.00 0.00 56 1011.7
20260507014515 62 360 3.0 10.0 0.00 0.00 0.00 68 1011.5
20260507013056 63 360 3.0 10.0 0.00 0.00 0.00 56 1011.4
20260507013005 63 360 3.0 10.0 0.00 0.00 0.00 68 1011.3
20260507011558 63 0 1.0 11.0 0.00 0.00 0.00 56 1011.0
20260507011503 63 360 1.0 11.0 0.00 0.00 0.00 68 1010.7
20260507010114 64 360 2.0 9.0 0.00 0.00 0.00 56 1010.6
20260507010101 64 360 4.0 10.0 0.00 0.00 0.00 67 1010.3
20260507010001 64 360 2.0 9.0 0.00 0.00 0.00 67 1010.3
20260507004559 65 360 2.0 12.0 0.00 0.00 0.00 67 1010.2
20260507004554 65 0 3.0 12.0 0.00 0.00 0.00 56 1010.4
20260507003056 65 360 1.0 10.0 0.00 0.00 0.00 67 1010.2
20260507001559 66 360 1.0 12.0 0.00 0.00 0.00 56 1010.5
20260507001557 66 360 1.0 6.0 0.00 0.00 0.00 67 1010.2
20260507000106 67 360 4.0 11.0 0.00 0.00 0.00 56 1010.3
20260507000051 67 360 5.0 11.0 0.00 0.00 0.00 68 1010.0
20260506234614 67 360 2.0 11.0 0.00 0.00 0.00 56 1010.2
20260506234556 67 360 2.0 9.0 0.00 0.00 0.00 67 1009.8
20260506233103 68 316 4.0 11.0 0.00 0.00 0.00 56 1009.8
20260506233046 68 348 5.0 11.0 0.00 0.00 0.00 68 1009.5
20260506231558 69 17 3.0 8.0 0.00 0.00 0.00 56 1009.5
20260506231551 69 345 3.0 8.0 0.00 0.00 0.00 68 1009.3
20260506230054 70 355 1.0 9.0 0.00 0.00 0.00 56 1009.3
20260506230052 70 346 1.0 9.0 0.00 0.00 0.00 68 1009.0
20260506224556 71 349 3.0 11.0 0.00 0.00 0.00 57 1009.4
20260506224539 71 28 4.0 11.0 0.00 0.00 0.00 69 1009.1
20260506223058 72 350 3.0 13.0 0.00 0.00 0.00 57 1009.3
20260506223047 72 360 3.0 13.0 0.00 0.00 0.00 69 1009.2
20260506221553 73 20 6.0 15.0 0.00 0.00 0.00 57 1008.9
20260506221532 73 13 7.0 15.0 0.00 0.00 0.00 69 1008.6
20260506220056 77 262 5.0 16.0 0.00 0.00 0.00 56 1008.7
20260506220032 77 269 6.0 16.0 0.00 0.00 0.00 68 1008.5
20260506214556 79 22 3.0 11.0 0.00 0.00 0.00 56 1008.1
20260506214530 79 29 3.0 9.0 0.00 0.00 0.00 68 1007.9
20260506213057 80 330 2.0 7.0 0.00 0.00 0.00 55 1008.1
20260506213030 80 329 3.0 6.0 0.00 0.00 0.00 67 1007.9
20260506211557 81 319 1.0 4.0 0.00 0.00 0.00 54 1008.2
20260506211538 81 313 2.0 5.0 0.00 0.00 0.00 66 1007.9
20260506210059 82 102 0.0 2.0 0.00 0.00 0.00 54 1008.3
20260506210033 82 102 0.0 2.0 0.00 0.00 0.00 65 1008.1
20260506204559 82 0 0.0 6.0 0.00 0.00 0.00 53 1008.5
20260506204527 82 103 0.0 6.0 0.00 0.00 0.00 65 1008.2
20260506203054 82 0 0.0 6.0 0.00 0.00 0.00 53 1008.5
20260506203030 82 105 1.0 6.0 0.00 0.00 0.00 65 1008.2
20260506201556 81 336 2.0 5.0 0.00 0.00 0.00 54 1008.4
20260506201533 81 338 1.0 5.0 0.00 0.00 0.00 66 1008.1
20260506200057 80 331 0.0 6.0 0.00 0.00 0.00 56 1008.3
20260506200023 80 360 0.0 6.0 0.00 0.00 0.00 67 1008.1
20260506194553 79 360 2.0 8.0 0.00 0.00 0.00 55 1008.4
20260506194528 79 360 3.0 8.0 0.00 0.00 0.00 66 1008.1
20260506193058 79 360 3.0 9.0 0.00 0.00 0.00 54 1008.6
20260506193021 79 360 3.0 8.0 0.00 0.00 0.00 66 1008.4
20260506191554 81 132 3.0 7.0 0.00 0.00 0.00 54 1008.7
20260506191521 81 130 2.0 7.0 0.00 0.00 0.00 65 1008.5
20260506190054 81 137 2.0 7.0 0.00 0.00 0.00 52 1008.9
20260506190020 81 136 1.0 7.0 0.00 0.00 0.00 64 1008.7
20260506184554 81 144 4.0 7.0 0.00 0.00 0.00 52 1009.3
20260506184518 81 146 4.0 7.0 0.00 0.00 0.00 63 1009.1
20260506183057 81 167 3.0 6.0 0.00 0.00 0.00 52 1009.7
20260506183027 81 171 3.0 6.0 0.00 0.00 0.00 63 1009.4
20260506181554 80 0 2.0 5.0 0.00 0.00 0.00 52 1010.0
20260506181513 80 198 1.0 5.0 0.00 0.00 0.00 64 1009.9
20260506180054 80 201 0.0 4.0 0.00 0.00 0.00 52 1010.5
20260506180014 80 205 0.0 4.0 0.00 0.00 0.00 63 1010.3
20260506174558 79 215 0.0 4.0 0.00 0.00 0.00 51 1010.8
20260506174512 79 215 0.0 4.0 0.00 0.00 0.00 63 1010.7
20260506173122 79 0 1.0 6.0 0.00 0.00 0.00 52 1011.2
20260506173010 79 175 1.0 5.0 0.00 0.00 0.00 63 1010.8